DW8362 Weather Reports


time (UTC)temp
C
wind
direction
speed
KPH
gust
KPH
rain 1hr
cm
rain 24hr
cm
rain mn
cm
humidity
%
barometer
mb
20260506081021 19 183 4.8 14.5 0.00 0.00 0.00 67 1007.4
20260506080522 19 182 6.4 14.5 0.00 0.00 0.00 67 1007.2
20260506073520 19 168 3.2 8.0 0.00 0.00 0.00 66 1007.2
20260506073025 19 141 6.4 14.5 0.00 0.00 0.00 65 1007.1
20260506073021 19 176 6.4 14.5 0.00 0.00 0.00 66 1007.2
20260506072019 19 141 6.4 14.5 0.00 0.00 0.00 65 1007.1
20260506071521 19 145 6.4 14.5 0.00 0.00 0.00 65 1007.1
20260506071021 19 179 6.4 14.5 0.00 0.00 0.00 64 1007.1
20260506070519 20 147 6.4 14.5 0.00 0.00 0.00 64 1007.2
20260506062019 20 128 3.2 9.7 0.00 0.00 0.00 61 1007.9
20260506061520 20 147 4.8 9.7 0.00 0.00 0.00 61 1007.9
20260506061019 20 151 3.2 9.7 0.00 0.00 0.00 61 1007.9
20260506060518 20 125 3.2 11.3 0.00 0.00 0.00 60 1008.0
20260506050518 20 110 3.2 9.7 0.00 0.00 0.00 58 1008.3
20260506045017 21 125 4.8 14.5 0.00 0.00 0.00 56 1008.4
20260506044516 21 138 6.4 14.5 0.00 0.00 0.00 56 1008.3
20260506044016 21 135 6.4 14.5 0.00 0.00 0.00 56 1008.4
20260506043517 21 164 6.4 14.5 0.00 0.00 0.00 55 1008.4
20260506043016 21 138 4.8 11.3 0.00 0.00 0.00 55 1008.3
20260506042517 21 164 4.8 16.1 0.00 0.00 0.00 55 1008.2
20260506042017 21 128 6.4 16.1 0.00 0.00 0.00 54 1008.4
20260506041517 21 123 4.8 11.3 0.00 0.00 0.00 54 1008.3
20260506041017 21 158 6.4 14.5 0.00 0.00 0.00 53 1008.3
20260506040517 21 195 6.4 16.1 0.00 0.00 0.00 53 1008.3
20260506040015 21 151 6.4 16.1 0.00 0.00 0.00 53 1008.3
20260506035516 21 137 4.8 14.5 0.00 0.00 0.00 52 1008.3
20260506035015 21 137 4.8 14.5 0.00 0.00 0.00 52 1008.3
20260506034514 21 141 6.4 16.1 0.00 0.00 0.00 52 1008.1
20260506034020 21 145 3.2 9.7 0.00 0.00 0.00 51 1008.2
20260506034015 21 152 4.8 16.1 0.00 0.00 0.00 51 1008.3
20260506033633 21 154 4.8 11.3 0.00 0.00 0.00 51 1008.1
20260506032519 21 133 3.2 9.7 0.00 0.00 0.00 51 1008.2
20260506032515 21 154 4.8 11.3 0.00 0.00 0.00 51 1008.2
20260506031515 20 142 3.2 9.7 0.00 0.00 0.00 51 1008.2
20260506031015 20 117 4.8 9.7 0.00 0.00 0.00 50 1008.2
20260506030515 20 155 3.2 9.7 0.00 0.00 0.00 50 1008.1
20260506030015 20 137 3.2 8.0 0.00 0.00 0.00 49 1008.1
20260506025515 21 159 3.2 8.0 0.00 0.00 0.00 49 1008.3
20260506025013 21 137 4.8 8.0 0.00 0.00 0.00 49 1008.1
20260506024514 21 145 3.2 6.4 0.00 0.00 0.00 49 1008.2
20260506024018 21 165 4.8 9.7 0.00 0.00 0.00 48 1008.1
20260506024013 21 137 1.6 8.0 0.00 0.00 0.00 48 1008.2
20260506023018 21 99 4.8 9.7 0.00 0.00 0.00 48 1008.2
20260506023014 21 120 3.2 9.7 0.00 0.00 0.00 48 1008.1
20260506022013 21 148 3.2 6.4 0.00 0.00 0.00 48 1008.2
20260506021514 21 151 1.6 6.4 0.00 0.00 0.00 47 1008.2
20260506021013 21 140 1.6 8.0 0.00 0.00 0.00 47 1008.3
20260506020514 21 154 3.2 8.0 0.00 0.00 0.00 47 1008.2
20260506020013 21 154 1.6 6.4 0.00 0.00 0.00 47 1008.3
20260506015512 21 154 3.2 8.0 0.00 0.00 0.00 46 1008.1
20260506015012 21 130 3.2 8.0 0.00 0.00 0.00 45 1008.1
20260506014519 21 158 1.6 8.0 0.00 0.00 0.00 44 1008.0
20260506014512 21 145 3.2 8.0 0.00 0.00 0.00 45 1008.0
20260506014132 21 152 1.6 6.4 0.00 0.00 0.00 44 1008.0
20260506013012 21 147 3.2 6.4 0.00 0.00 0.00 43 1008.0
20260506012513 21 197 0.0 4.8 0.00 0.00 0.00 42 1007.9
20260506012013 22 159 0.0 4.8 0.00 0.00 0.00 41 1007.9
20260506011512 22 172 1.6 6.4 0.00 0.00 0.00 40 1007.8
20260506011013 22 131 1.6 6.4 0.00 0.00 0.00 40 1007.8
20260506010512 22 154 1.6 6.4 0.00 0.00 0.00 39 1007.7
20260506010012 22 145 3.2 6.4 0.00 0.00 0.00 38 1007.7
20260506005512 22 157 3.2 8.0 0.00 0.00 0.00 38 1007.6
20260506005020 23 142 3.2 8.0 0.00 0.00 0.00 36 1007.5
20260506005012 23 123 1.6 8.0 0.00 0.00 0.00 37 1007.6
20260506004512 23 144 3.2 6.4 0.00 0.00 0.00 36 1007.6
20260506003513 23 151 4.8 9.7 0.00 0.00 0.00 35 1007.4
20260506003011 23 149 4.8 9.7 0.00 0.00 0.00 34 1007.4
20260506002517 23 158 6.4 11.3 0.00 0.00 0.00 34 1007.2
20260506002512 23 162 3.2 11.3 0.00 0.00 0.00 34 1007.3
20260506001513 24 166 6.4 11.3 0.00 0.00 0.00 34 1007.1
20260506001014 24 104 4.8 11.3 0.00 0.00 0.00 34 1007.1
20260506001010 24 151 4.8 11.3 0.00 0.00 0.00 34 1007.0
20260506000010 24 182 8.0 11.3 0.00 0.00 0.00 34 1007.0
20260505235510 25 123 6.4 11.3 0.00 0.00 0.00 34 1007.1
20260505235011 25 96 6.4 11.3 0.00 0.00 0.00 35 1007.0
20260505234509 25 145 4.8 9.7 0.00 0.00 0.00 35 1007.0
20260505234010 25 114 4.8 9.7 0.00 0.00 0.00 35 1007.0
20260505233509 25 151 3.2 11.3 0.00 0.00 0.00 35 1006.9
20260505233010 25 154 6.4 11.3 0.00 0.00 0.00 35 1006.9
20260505232510 25 145 6.4 14.5 0.00 0.00 0.00 34 1006.9
20260505232011 25 85 6.4 20.9 0.00 0.00 0.00 34 1006.9
20260505231516 26 79 6.4 20.9 0.00 0.00 0.00 33 1006.8
20260505231510 25 125 8.0 20.9 0.00 0.00 0.00 34 1006.8
20260505230509 26 142 8.0 20.9 0.00 0.00 0.00 33 1006.8
20260505230008 26 128 9.7 20.9 0.00 0.00 0.00 33 1006.8
20260505225508 26 144 4.8 20.9 0.00 0.00 0.00 34 1006.8
20260505225008 26 168 11.3 20.9 0.00 0.00 0.00 34 1006.9
20260505224514 26 111 9.7 25.7 0.00 0.00 0.00 33 1007.0
20260505224509 26 134 8.0 25.7 0.00 0.00 0.00 34 1006.9
20260505223510 26 147 8.0 19.3 0.00 0.00 0.00 34 1006.8
20260505223007 26 148 4.8 11.3 0.00 0.00 0.00 35 1006.9
20260505222508 26 154 6.4 16.1 0.00 0.00 0.00 34 1007.0
20260505222007 26 162 6.4 16.1 0.00 0.00 0.00 34 1007.0
20260505221511 26 142 9.7 20.9 0.00 0.00 0.00 33 1006.9
20260505221507 26 148 6.4 19.3 0.00 0.00 0.00 34 1006.9
20260505220507 27 154 12.9 20.9 0.00 0.00 0.00 34 1007.0
20260505220008 27 128 9.7 19.3 0.00 0.00 0.00 33 1007.0
20260505215507 27 131 8.0 11.3 0.00 0.00 0.00 35 1006.8
20260505215009 27 148 6.4 9.7 0.00 0.00 0.00 35 1006.9
20260505214506 27 144 3.2 9.7 0.00 0.00 0.00 35 1006.9
20260505214006 27 155 6.4 11.3 0.00 0.00 0.00 35 1006.9
20260505213507 27 102 6.4 17.7 0.00 0.00 0.00 34 1006.8
20260505213007 27 154 4.8 17.7 0.00 0.00 0.00 34 1006.8
20260505212508 26 127 8.0 17.7 0.00 0.00 0.00 33 1006.8
20260505212007 26 157 4.8 22.5 0.00 0.00 0.00 34 1006.8
20260505211507 27 157 9.7 22.5 0.00 0.00 0.00 33 1006.7
20260505211007 27 162 6.4 16.1 0.00 0.00 0.00 33 1006.8
20260505210511 27 113 8.0 20.9 0.00 0.00 0.00 34 1006.8
20260505210506 27 166 8.0 19.3 0.00 0.00 0.00 33 1006.8
20260505205511 27 203 8.0 17.7 0.00 0.00 0.00 34 1006.7
20260505205506 27 176 11.3 24.1 0.00 0.00 0.00 33 1006.8
20260505205006 27 109 11.3 24.1 0.00 0.00 0.00 33 1006.7
20260505204005 27 111 9.7 17.7 0.00 0.00 0.00 35 1006.7
20260505203505 28 128 9.7 17.7 0.00 0.00 0.00 34 1006.7
20260505203006 27 142 8.0 19.3 0.00 0.00 0.00 35 1006.7
20260505202506 28 142 9.7 19.3 0.00 0.00 0.00 34 1006.8
20260505202010 28 154 9.7 17.7 0.00 0.00 0.00 33 1006.8
20260505202005 28 151 9.7 17.7 0.00 0.00 0.00 33 1006.7
20260505201007 28 180 6.4 22.5 0.00 0.00 0.00 35 1006.7
20260505200506 28 130 8.0 30.6 0.00 0.00 0.00 35 1006.7
20260505200005 28 135 12.9 30.6 0.00 0.00 0.00 34 1006.8
20260505195506 28 203 12.9 19.3 0.00 0.00 0.00 37 1006.8
20260505195014 28 171 9.7 27.4 0.00 0.00 0.00 37 1007.0
20260505195004 28 179 9.7 29.0 0.00 0.00 0.00 35 1006.8
20260505194505 28 124 14.5 29.0 0.00 0.00 0.00 35 1006.8
20260505194005 28 161 9.7 24.1 0.00 0.00 0.00 37 1006.9
20260505193503 28 182 11.3 24.1 0.00 0.00 0.00 36 1007.0
20260505192503 28 189 12.9 27.4 0.00 0.00 0.00 36 1007.1
20260505192004 28 165 11.3 24.1 0.00 0.00 0.00 36 1007.1
20260505191508 28 175 9.7 24.1 0.00 0.00 0.00 38 1007.3
20260505191504 28 157 9.7 24.1 0.00 0.00 0.00 38 1007.1
20260505190503 28 154 8.0 22.5 0.00 0.00 0.00 38 1007.3
20260505190007 28 131 8.0 14.5 0.00 0.00 0.00 38 1007.6
20260505190003 28 121 11.3 20.9 0.00 0.00 0.00 37 1007.5
20260505185617 28 140 9.7 16.1 0.00 0.00 0.00 41 1007.7
20260505184502 28 141 4.8 16.1 0.00 0.00 0.00 41 1007.7
20260505184003 28 165 11.3 22.5 0.00 0.00 0.00 40 1007.7
20260505183503 28 89 9.7 22.5 0.00 0.00 0.00 39 1007.8
20260505183002 28 228 6.4 16.1 0.00 0.00 0.00 39 1007.9
20260505182503 28 305 8.0 16.1 0.00 0.00 0.00 39 1007.9
20260505182002 28 134 8.0 20.9 0.00 0.00 0.00 40 1007.9
20260505181504 28 124 9.7 20.9 0.00 0.00 0.00 39 1008.0
20260505181001 28 188 8.0 16.1 0.00 0.00 0.00 40 1008.2
20260505180501 28 125 9.7 16.1 0.00 0.00 0.00 38 1008.2
20260505180002 28 154 8.0 16.1 0.00 0.00 0.00 40 1008.4
20260505175501 27 135 6.4 17.7 0.00 0.00 0.00 37 1008.4
20260505175005 28 157 6.4 17.7 0.00 0.00 0.00 39 1008.5
20260505175001 28 137 9.7 17.7 0.00 0.00 0.00 38 1008.5
20260505174002 28 125 9.7 17.7 0.00 0.00 0.00 39 1008.6
20260505173502 27 137 8.0 16.1 0.00 0.00 0.00 38 1008.6
20260505173006 27 121 6.4 16.1 0.00 0.00 0.00 41 1008.6
20260505173001 27 165 6.4 14.5 0.00 0.00 0.00 40 1008.6
20260505172000 27 148 9.7 17.7 0.00 0.00 0.00 40 1008.7
20260505171501 27 120 6.4 17.7 0.00 0.00 0.00 43 1008.8
20260505171001 27 137 9.7 17.7 0.00 0.00 0.00 39 1008.8
20260505170506 27 124 4.8 11.3 0.00 0.00 0.00 40 1008.9
20260505170501 27 142 9.7 17.7 0.00 0.00 0.00 38 1008.9
20260505165504 27 148 4.8 11.3 0.00 0.00 0.00 40 1009.2
20260505165500 27 172 6.4 11.3 0.00 0.00 0.00 38 1009.1
20260505164504 27 125 4.8 14.5 0.00 0.00 0.00 41 1009.3
20260505164459 27 337 6.4 14.5 0.00 0.00 0.00 42 1009.1
20260505164117 27 128 4.8 14.5 0.00 0.00 0.00 45 1009.2
20260505163000 27 157 4.8 19.3 0.00 0.00 0.00 43 1009.4
20260505162459 27 180 4.8 19.3 0.00 0.00 0.00 43 1009.3
20260505162001 27 140 4.8 14.5 0.00 0.00 0.00 45 1009.7
20260505161500 27 128 3.2 14.5 0.00 0.00 0.00 43 1009.7
20260505161004 26 157 4.8 16.1 0.00 0.00 0.00 45 1009.9
20260505161000 27 154 4.8 14.5 0.00 0.00 0.00 44 1009.7
20260505153002 26 127 3.2 14.5 0.00 0.00 0.00 42 1010.0
20260505152958 26 158 3.2 14.5 0.00 0.00 0.00 42 1010.1
20260505151959 26 140 3.2 14.5 0.00 0.00 0.00 44 1010.0
20260505151459 26 73 3.2 14.5 0.00 0.00 0.00 44 1010.0
20260505150958 26 138 1.6 20.9 0.00 0.00 0.00 45 1010.0
20260505150457 26 145 6.4 20.9 0.00 0.00 0.00 44 1010.0
20260505140501 23 148 6.4 11.3 0.00 0.00 0.00 54 1010.0
20260505140456 23 145 1.6 11.3 0.00 0.00 0.00 56 1009.9
20260505124954 18 125 3.2 4.8 0.00 0.00 0.00 71 1010.6
20260505124454 17 164 0.0 4.8 0.00 0.00 0.00 72 1010.7
20260505123955 17 142 1.6 3.2 0.00 0.00 0.00 74 1010.8
20260505123454 16 141 1.6 3.2 0.00 0.00 0.00 75 1010.8
20260505122959 15 137 1.6 6.4 0.00 0.00 0.00 77 1010.9
20260505122954 16 213 0.0 6.4 0.00 0.00 0.00 77 1010.9
20260505122000 15 145 1.6 6.4 0.00 0.00 0.00 79 1010.9
20260505121954 15 125 3.2 6.4 0.00 0.00 0.00 78 1010.8
20260505121612 15 148 1.6 6.4 0.00 0.00 0.00 80 1010.8
20260505120453 15 193 1.6 6.4 0.00 0.00 0.00 80 1010.7
20260505115954 14 159 0.0 6.4 0.00 0.00 0.00 82 1010.8
20260505115454 13 154 0.0 6.4 0.00 0.00 0.00 83 1010.7
20260505114953 13 148 1.6 4.8 0.00 0.00 0.00 85 1010.7
20260505114453 13 152 0.0 6.4 0.00 0.00 0.00 86 1010.6
20260505113957 12 144 0.0 3.2 0.00 0.00 0.00 89 1010.5
20260505113952 12 147 1.6 6.4 0.00 0.00 0.00 88 1010.6
20260505112957 11 142 0.0 1.6 0.00 0.00 0.00 91 1010.4
20260505112952 11 176 0.0 3.2 0.00 0.00 0.00 90 1010.4
20260505111953 11 207 0.0 1.6 0.00 0.00 0.00 92 1010.4
20260505111453 10 158 0.0 0.0 0.00 0.00 0.00 92 1010.3
20260505110951 10 164 0.0 0.0 0.00 0.00 0.00 92 1010.3
20260505110452 10 154 0.0 0.0 0.00 0.00 0.00 92 1010.2
20260505101949 -17 0.0 0.0 0.00 0.00 0.00 1009.7
20260505101448 -17 0.0 0.0 0.00 0.00 0.00 1009.7
20260505100946 -17 0.0 0.0 0.00 0.00 0.00 1009.6
20260505100445 -17 0.0 0.0 0.00 0.00 0.00 1009.4
20260505095945 -17 0.0 0.0 0.00 0.00 0.00 1009.6
20260505095444 -17 0.0 0.0 0.00 0.00 0.00 1009.6
20260505094943 -17 0.0 0.0 0.00 0.00 0.00 1009.6
20260505094442 -17 0.0 0.0 0.00 0.00 0.00 1009.6
20260505093941 -17 0.0 0.0 0.00 0.00 0.00 1009.4
20260505093440 -17 0.0 0.0 0.00 0.00 0.00 1009.6
20260505092939 -17 0.0 0.0 0.00 0.00 0.00 1009.4
20260505092442 -17 0.0 0.0 0.00 0.00 0.00 1009.4
20260505092438 -17 0.0 0.0 0.00 0.00 0.00 1009.4
20260505091436 -17 0.0 0.0 0.00 0.00 0.00 1009.4
20260505090935 -17 0.0 0.0 0.00 0.00 0.00 1009.3
20260505090434 -17 0.0 0.0 0.00 0.00 0.00 1009.3
20260505085933 -17 0.0 0.0 0.00 0.00 0.00 1009.3
20260505085432 -17 0.0 0.0 0.00 0.00 0.00 1009.1
20260505084931 12 207 0.0 0.0 0.00 0.00 0.00 100 1009.2
20260505084430 10 203 0.0 0.0 0.00 0.00 0.00 91 1009.1
20260505083929 10 203 0.0 0.0 0.00 0.00 0.00 90 1009.2
20260505083436 10 202 0.0 0.0 0.00 0.00 0.00 90 1009.3
20260505083430 10 204 0.0 0.0 0.00 0.00 0.00 90 1009.2
20260505082430 10 203 0.0 0.0 0.00 0.00 0.00 90 1009.2
20260505081930 10 203 0.0 0.0 0.00 0.00 0.00 90 1009.1
20260505081429 10 203 0.0 0.0 0.00 0.00 0.00 90 1009.1